SCP
0 0 0 0 0 0 0 0 0 0 0 0 0 0 0 0 0 0 0 0 0 0 0 0 0 0 0 0 0 0 0 0 0 0 0 0 0 0 0 0 0 0 -0 -0 -0 -0 -0
0 0 0 0 0 0 0 0 0 0 0 0 0 0 0 0 0 0 0 0 0 0 0 0 0 0 0 0 0 0 0 0 0 0 0 0 0 0 0 0 0 0 0 -0 -0 -0 -0
0 0 0 0 0 0 0 0 0 0 0 0 0 0 0 0 0 0 0 0 0 0 0 0 0 -0 0 0 0 0 0 0 0 0 0 0 0 0 0 0 0 0 0 0 0 0 0
0 0 0 0 0 0 0 0 0 0 0 0 0 0 0 0 0 0 0 0 0 0 0 0 0 -0 -0 0 0 0 0 0 0 0 0 0 0 0 0 0 0 0 0 0 0 0 0
0 0 0 0 0 0 0 0 0 0 0 0 0 0 0 0 0 0 0 0 0 0 0 0 0 0 -0 0 0 0 0 0 0 0 0 0 0 0 0 0 0 0 0 0 0 0 0
0 0 0 0 0 0 0 0 0 0 0 0 0 0 0 0 0 0 0 0 0 0 0 0 0 0 0 0 0 0 0 0 0 0 0 0 0 0 0 0 0 0 0 0 0 0 0
0 0 0 0 0 0 0 0 0 0 0 0 0 0 0 0 0 0 0 0 0 0 0 0 0 0 0 0 0 0 0 0 0 0 0 0 0 0 0 0 0 0 0 0 0 0 0
0 0 0 0 0 0 0 0 0 0 0 0 0 0 0 0 0 0 0 0 0 0 0 0 0 0 0 0 0 0 0 0 0 0 0 0 0 0 0 0 0 0 0 0 0 0 0
0 0 0 0 0 0 0 0 0 0 0 0 0 0 0 0 0 0 0 0 0 0 0 -0 0 0 0 0 0 0 0 0 0 0 0 0 0 0 0 0 0 0 0 0 0 0 0
0 0 0 0 0 0 0 0 0 0 0 0 0 0 0 0 0 0 0 0 0 0 0 0 0 0 0 0 0 0 0 0 0 0 0 0 0 0 0 0 0 0 0 0 0 0 0
0 0 0 0 0 0 0 0 0 0 0 0 0 0 0 0 0 0 0 0 0 0 0 0 0 0 0 0 0 0 0 0 0 0 0 0 0 0 0 0 0 0 0 0 0 0 0
0 0 0 0 0 0 0 0 0 0 0 0 0 0 0 0 0 0 0 0 0 0 0 0 0 0 0 0 0 0 0 0 0 0 0 0 0 0 0 0 0 0 0 0 0 0 0
0 0 0 0 0 0 0 0 0 0 0 0 0 0 0 0 0 0 0 0 0 0 0 0 0 0 0 0 0 0 0 0 0 0 0 0 0 0 0 0 0 0 0 0 0 0 0
0 0 0 0 0 0 0 0 0 0 0 0 0 0 0 0 0 0 0 0 0 0 0 0 0 0 0 0 0 0 0 0 0 0 0 0 0 0 0 0 0 0 0 0 0 0 0
0 0 0 0 0 0 0 0 0 0 0 0 0 0 0 0 0 0 0 0 0 0 0 0 0 0 0 0 0 0 0 0 0 0 0 0 0 0 0 0 0 0 0 0 0 0 0
0 0 0 0 0 0 0 0 0 0 0 0 0 0 0 0 0 0 0 0 0 0 0 0 0 0 0 0 0 0 0 0 0 0 0 0 0 0 0 0 0 0 0 0 0 0 0
0 0 0 0 0 0 0 0 0 0 0 0 0 0 0 0 0 0 0 0 0 0 0 0 0 0 0 0 0 0 0 0 0 0 0 0 0 0 0 0 0 0 0 0 0 0 0
0 0 0 0 0 0 0 0 0 0 0 0 0 0 0 0 0 0 0 0 0 0 0 0 0 0 0 0 0 0 0 0 0 0 0 0 0 0 0 0 0 0 0 0 0 0 0
0 0 0 0 0 0 0 0 0 0 0 0 0 0 0 0 0 0 0 0 0 0 0 0 0 0 0 0 0 0 0 0 0 0 0 0 0 0 0 0 0 0 0 0 0 0 0
0 0 0 0 0 0 0 0 0 0 0 0 0 0 0 0 0 0 0 0 0 0 0 0 0 0 0 0 0 0 0 0 0 0 0 0 0 0 0 0 0 0 0 0 0 0 0
0 0 0 0 0 0 0 0 0 0 0 0 0 0 0 0 0 0 0 0 0 0 0 0 0 0 0 -0 0 0 0 0 0 0 0 0 0 0 0 0 0 0 0 0 0 0 0
0 0 0 0 0 0 0 0 0 0 0 0 0 0 0 0 0 0 0 0 0 0 0 0 0 0 0 -0 0 0 0 0 0 0 0 0 0 0 0 0 0 0 0 0 0 0 0
0 0 0 0 0 0 0 0 0 0 0 0 0 0 0 0 0 0 0 0 0 0 0 0 0 0 0 0 0 -0 -0 0 0 0 0 0 0 0 0 0 0 0 0 0 0 0 0
0 0 0 0 0 0 0 0 0 0 0 0 0 0 0 0 0 0 0 0 0 0 0 0 0 0 -0 0 0 -0 -0 0 0 0 0 0 0 0 0 0 0 0 0 0 0 0 0
0 0 0 0 0 0 0 0 0 0 0 0 0 0 0 0 0 0 0 0 0 0 0 0 0 0 0 -0 -0 -0 0 0 0 0 0 0 0 0 0 0 0 0 0 0 0 0 0
0 0 0 0 0 0 0 0 0 0 0 0 0 0 0 0 0 0 0 0 0 0 0 0 0 -0 -0 0 -0 -0 0 0 0 0 0 0 0 0 0 0 0 0 0 0 0 0 0
0 0 0 0 0 0 0 0 0 0 0 0 0 0 0 0 -0 0 0 0 0 0 0 0 0 0 -0 0 -0 -0 0 0 0 0 0 0 0 0 0 0 0 0 0 0 0 0 0
0 -0 -0 0 0 0 0 0 0 0 0 0 0 0 0 0 0 0 0 0 0 0 0 0 0 -0 -0 -0 -0 -0 0 0 0 0 0 0 0 0 0 0 0 0 0 0 0 0 0
0 0 -0 0 0 0 0 0 -0 -0 -0 0 0 0 0 0 0 0 0 0 0 0 0 0 0 -0 -0 0 -0 -0 0 0 0 0 0 0 0 0 0 0 0 0 0 0 0 0 0
Wind_Speed_500mb
22 31 39 33 31 32 33 34 32 34 35 36 37 38 38 36 35 35 34 35 33 29 30 33 33 33 28 15 7 8 4 6 12 16 15 15 13 8 4 6 4 7 9 9 16 29 36
12 14 16 24 37 34 35 36 34 33 33 34 36 37 36 37 38 36 35 35 34 34 31 33 33 32 26 11 8 7 8 10 9 12 15 16 8 8 5 7 7 6 12 25 29 38 21
13 14 14 14 12 20 24 33 35 36 36 35 36 38 39 37 39 39 38 35 33 33 34 33 32 35 33 38 21 16 13 13 15 11 13 13 12 12 3 4 6 7 11 12 9 7 7
11 14 14 13 15 17 15 14 20 27 34 35 36 36 42 44 39 42 39 39 34 32 32 33 33 35 30 26 31 30 32 38 25 19 16 14 12 12 7 6 7 5 1 6 3 12 6
10 11 13 12 12 14 14 16 19 17 19 24 31 38 38 39 42 43 44 37 34 35 32 30 29 22 29 27 32 27 41 38 24 32 20 17 13 8 2 2 7 6 6 7 13 8 2
8 11 13 13 10 11 12 15 18 19 21 22 24 24 30 40 38 40 47 36 31 34 32 29 30 21 34 22 11 12 20 24 29 28 22 15 8 4 4 7 8 3 4 6 16 3 12
16 12 13 14 11 12 13 14 14 16 18 20 23 25 26 28 34 36 41 31 15 13 19 22 9 19 14 9 15 11 21 15 26 14 12 7 8 26 24 16 7 5 7 18 18 22 8
14 19 17 15 16 14 14 14 13 15 18 18 19 24 28 28 27 28 27 11 3 9 19 28 48 54 59 56 22 16 15 19 20 21 15 6 24 19 9 14 13 14 20 22 20 14 6
17 19 18 17 17 15 14 14 14 15 14 17 19 23 24 23 23 16 14 7 8 16 11 22 46 49 61 46 41 59 20 14 10 16 25 28 11 3 21 13 12 15 17 16 19 12 10
24 21 19 20 20 18 16 16 15 17 16 16 18 21 22 19 13 7 4 3 28 4 6 13 13 28 44 39 26 59 55 19 9 27 15 15 22 11 9 12 17 20 22 27 18 8 6
19 22 25 24 24 22 20 19 18 16 18 19 19 22 21 16 6 1 2 17 20 32 10 14 9 14 31 47 29 31 71 45 16 13 13 17 16 18 26 42 21 15 10 12 8 8 2
25 24 23 25 28 28 26 25 21 20 19 19 19 20 20 16 9 9 9 15 36 8 14 15 9 7 4 38 24 20 30 48 35 10 6 15 10 14 19 9 26 7 6 7 4 4 8
20 22 22 27 31 32 29 26 26 26 22 21 20 20 17 15 7 8 11 21 6 8 8 17 21 13 18 9 16 25 26 31 32 22 28 30 26 8 10 9 11 8 7 3 5 7 14
22 23 25 28 28 26 23 28 27 25 22 22 22 22 20 19 19 12 5 6 7 19 26 2 9 12 23 19 17 17 19 30 42 31 23 31 26 36 27 43 20 23 18 11 13 10 4
30 28 28 27 27 27 24 23 23 25 22 19 22 23 25 17 14 4 4 6 16 12 4 12 21 11 22 19 15 18 32 41 35 47 37 22 27 6 16 20 34 13 17 38 8 3 6
29 31 33 34 33 30 26 26 26 25 22 19 24 20 24 17 11 15 5 14 15 20 8 17 19 18 35 36 25 25 24 26 41 40 38 22 15 19 8 10 22 21 20 11 9 14 20
29 31 30 27 27 30 36 36 30 26 23 23 16 7 5 17 26 21 10 17 16 29 10 10 11 25 24 8 35 26 25 25 40 41 42 9 20 4 14 19 30 15 17 6 9 9 11
31 32 31 32 31 29 25 25 32 33 27 27 15 4 15 38 20 13 14 13 20 27 25 29 15 27 32 36 22 27 35 36 49 54 30 44 16 26 26 7 10 23 27 29 11 14 8
37 37 37 35 34 31 30 29 27 32 33 41 17 19 26 45 14 20 11 21 26 25 16 12 20 23 33 28 20 31 16 22 20 27 24 21 17 17 10 10 4 13 15 29 14 6 20
46 45 45 44 44 43 39 36 34 34 39 49 23 9 23 45 37 23 27 27 29 33 35 38 30 26 16 34 37 23 19 4 2 17 58 20 11 30 40 44 13 14 16 23 30 5 34
50 51 52 52 51 50 48 45 42 38 38 53 31 13 23 12 31 35 23 12 26 21 32 30 19 45 45 19 35 42 46 47 15 6 2 13 21 25 42 28 9 12 25 28 31 47 23
58 60 60 59 59 58 56 52 51 46 41 53 30 18 26 26 34 39 41 43 46 41 19 19 40 41 36 53 37 44 29 14 25 3 6 0 5 10 27 22 24 20 10 32 41 24 26
67 66 67 66 65 64 63 63 65 57 50 46 59 46 31 31 24 27 35 49 53 55 48 59 44 38 38 51 54 62 63 73 12 11 5 5 7 9 46 10 15 7 38 18 18 12 23
59 59 59 62 62 65 68 69 70 69 71 78 56 39 15 16 30 43 43 49 47 45 41 42 53 44 72 85 69 80 75 69 44 30 7 14 10 14 25 4 18 14 5 24 31 14 24
59 63 65 70 71 69 71 70 69 71 79 82 79 63 32 15 37 35 52 50 61 60 45 47 49 54 48 46 13 17 26 27 36 34 33 11 18 6 8 10 13 29 8 12 15 24 27
70 69 73 75 77 78 76 75 75 71 78 81 86 87 62 9 40 72 47 51 35 32 29 40 45 52 52 24 9 18 20 17 18 15 30 18 13 24 6 9 22 24 24 25 9 16 18
70 70 75 79 84 86 86 87 84 81 79 84 84 89 71 37 57 52 42 46 59 37 22 21 29 27 50 28 20 22 30 14 21 27 18 16 6 37 27 14 16 9 7 32 21 16 17
59 60 63 69 77 80 83 86 84 86 87 86 99 94 85 38 63 58 92 69 36 53 25 36 17 22 17 19 19 14 16 13 18 33 22 19 20 10 8 21 37 17 12 22 11 13 27
53 55 59 60 52 52 63 71 78 81 83 93 97 99 97 62 39 50 77 101 91 70 64 31 24 26 18 15 14 10 14 10 25 18 15 19 12 16 21 12 1 8 2 10 28 39 28
Wind_Direction_500mb
246 247 247 249 251 255 257 260 268 275 273 273 268 270 270 275 277 280 283 288 293 298 304 307 311 316 326 310 273 283 248 189 213 234 239 219 199 195 215 195 216 225 265 247 252 279 283
232 239 246 246 250 253 257 259 261 263 267 275 279 271 274 274 275 277 280 283 288 294 300 305 309 310 318 296 263 269 248 210 216 229 250 232 240 234 227 221 206 236 274 284 284 275 257
234 240 240 251 250 251 254 258 260 263 262 266 275 279 273 272 276 276 279 280 283 290 294 300 308 309 297 269 265 255 248 237 236 238 241 234 261 249 218 249 277 280 295 309 309 312 249
232 235 244 245 258 263 268 269 271 269 270 269 265 272 279 273 273 276 277 280 284 283 287 293 300 306 279 276 260 255 249 243 242 238 219 214 288 257 257 306 343 336 12 329 303 335 19
241 244 254 250 258 266 272 279 272 281 287 286 278 271 273 278 274 272 275 279 285 285 286 285 294 295 275 262 253 257 244 243 241 230 220 231 279 225 290 21 309 22 292 308 315 349 325
251 260 268 269 263 271 273 275 288 292 289 287 292 293 277 271 275 274 272 280 283 286 281 280 268 288 254 256 250 255 235 230 217 214 230 214 188 206 102 180 250 204 295 271 285 249 324
225 241 266 276 267 274 279 284 289 293 296 295 290 290 295 287 275 278 281 283 293 284 238 213 230 214 264 299 271 260 244 212 190 189 186 171 193 228 212 213 244 290 260 272 278 276 280
236 235 245 258 274 273 286 288 287 288 293 296 302 298 294 297 298 274 283 286 137 327 299 255 245 253 253 268 286 291 227 186 171 196 141 169 230 234 201 207 238 267 285 281 282 280 263
241 244 250 260 268 277 282 282 289 290 298 306 304 304 303 306 306 275 264 244 246 311 277 276 250 249 248 248 249 254 242 214 172 163 191 208 191 202 199 194 204 240 254 263 258 315 267
251 252 254 258 266 270 278 283 286 290 297 298 305 312 315 319 302 322 110 253 226 155 313 282 231 246 219 222 250 245 238 233 202 201 163 228 232 198 173 210 184 264 215 248 267 275 252
264 257 255 257 260 265 267 274 282 289 295 296 300 308 317 333 325 4 5 44 150 151 244 277 258 276 218 186 207 227 230 219 217 179 165 215 177 189 216 233 177 243 187 222 242 219 252
265 260 252 258 260 261 265 271 272 276 281 288 295 299 306 318 318 278 263 12 124 88 240 283 284 224 196 222 227 192 178 202 218 186 250 229 200 180 203 176 189 177 147 66 69 157 229
268 269 270 264 261 261 260 266 271 272 274 277 284 288 295 299 301 299 329 137 95 200 123 232 223 181 206 212 252 219 177 173 191 191 221 215 225 202 167 144 175 183 106 284 243 217 236
263 273 273 262 265 269 265 262 269 276 278 273 272 272 269 267 288 311 38 97 236 198 201 192 259 213 199 178 215 228 215 206 208 198 217 214 236 198 193 211 194 201 171 180 222 209 241
264 264 261 264 263 262 265 268 272 274 280 281 271 273 273 264 274 293 179 168 216 209 237 253 257 265 228 221 198 185 220 222 207 202 209 201 230 166 191 190 185 172 188 230 227 87 253
265 267 268 261 261 264 266 268 269 273 273 268 267 278 279 255 212 155 124 240 238 198 340 357 248 248 241 218 199 185 199 222 226 216 212 211 243 209 156 125 214 195 151 121 205 215 235
278 267 269 267 267 266 265 264 261 257 253 247 245 279 176 184 169 178 206 228 264 240 186 211 303 280 276 305 219 208 202 207 210 216 214 187 219 181 132 201 179 182 215 178 165 187 213
272 272 271 273 272 268 265 264 257 250 240 230 211 200 201 171 179 210 220 205 250 266 235 230 264 271 272 278 303 236 216 217 196 204 197 211 209 229 208 135 225 201 211 185 194 204 236
272 272 272 274 273 270 268 267 265 242 227 218 213 195 190 193 210 221 240 241 243 255 229 230 243 218 273 303 270 263 253 233 215 193 188 181 210 227 230 235 112 212 195 200 197 61 209
272 271 270 270 270 269 268 261 256 248 229 225 196 196 190 212 229 225 224 249 251 251 246 247 256 246 280 284 280 283 271 293 178 216 215 179 196 214 226 227 185 206 202 204 195 165 236
271 271 273 271 267 264 260 256 249 244 231 219 200 205 194 198 219 218 225 243 246 241 233 224 234 235 240 260 281 272 272 254 278 178 248 177 202 214 236 240 191 205 217 199 202 222 220
272 270 267 266 265 264 263 257 249 242 235 230 212 194 207 227 194 207 217 231 241 249 251 242 237 248 242 235 234 277 316 246 260 301 129 155 303 189 245 230 229 248 222 208 220 233 238
275 272 269 267 265 263 259 256 249 241 233 233 240 232 214 215 205 193 211 220 229 240 250 246 257 268 267 256 253 266 293 283 278 331 97 115 112 231 248 206 168 220 229 181 192 186 216
279 276 273 270 267 263 257 253 247 240 231 233 232 236 221 228 206 215 217 216 224 225 235 248 239 244 256 266 283 277 288 275 255 263 262 148 146 230 255 160 220 242 238 228 228 210 207
284 283 278 273 269 264 259 256 248 241 232 234 236 231 218 240 222 225 224 225 236 245 243 243 250 261 277 272 284 269 258 240 237 235 243 192 200 214 241 220 281 270 189 157 174 238 210
286 281 280 276 270 266 255 250 248 245 236 236 235 237 238 256 218 221 221 222 228 228 246 245 251 255 255 250 243 239 239 201 184 199 213 191 211 213 139 235 225 255 193 184 147 249 177
288 285 283 278 272 265 257 250 246 243 239 236 237 234 229 243 255 220 220 218 225 229 246 246 230 243 242 233 226 241 253 213 199 188 168 165 172 203 210 233 269 243 218 159 182 241 173
291 292 293 290 281 265 252 247 245 241 238 233 235 234 225 232 250 231 224 221 215 214 222 229 219 238 235 252 210 204 241 226 202 200 175 167 170 180 147 204 246 174 138 188 192 117 152
297 296 295 297 290 263 247 244 242 241 239 234 231 227 229 228 244 251 231 230 222 221 216 223 230 228 219 215 210 212 229 216 192 212 190 202 188 187 191 207 155 148 17 152 150 150 158
Wind_Speed_850mb
22 31 39 33 31 32 33 34 32 34 35 36 37 38 38 36 35 35 34 35 33 29 30 33 33 33 28 15 7 8 4 6 12 16 15 15 13 8 4 6 4 7 9 9 16 29 36
12 14 16 24 37 34 35 36 34 33 33 34 36 37 36 37 38 36 35 35 34 34 31 33 33 32 26 11 8 7 8 10 9 12 15 16 8 8 5 7 7 6 12 25 29 38 21
13 14 14 14 12 20 24 33 35 36 36 35 36 38 39 37 39 39 38 35 33 33 34 33 32 35 33 38 21 16 13 13 15 11 13 13 12 12 3 4 6 7 11 12 9 7 7
11 14 14 13 15 17 15 14 20 27 34 35 36 36 42 44 39 42 39 39 34 32 32 33 33 35 30 26 31 30 32 38 25 19 16 14 12 12 7 6 7 5 1 6 3 12 6
10 11 13 12 12 14 14 16 19 17 19 24 31 38 38 39 42 43 44 37 34 35 32 30 29 22 29 27 32 27 41 38 24 32 20 17 13 8 2 2 7 6 6 7 13 8 2
8 11 13 13 10 11 12 15 18 19 21 22 24 24 30 40 38 40 47 36 31 34 32 29 30 21 34 22 11 12 20 24 29 28 22 15 8 4 4 7 8 3 4 6 16 3 12
16 12 13 14 11 12 13 14 14 16 18 20 23 25 26 28 34 36 41 31 15 13 19 22 9 19 14 9 15 11 21 15 26 14 12 7 8 26 24 16 7 5 7 18 18 22 8
14 19 17 15 16 14 14 14 13 15 18 18 19 24 28 28 27 28 27 11 3 9 19 28 48 54 59 56 22 16 15 19 20 21 15 6 24 19 9 14 13 14 20 22 20 14 6
17 19 18 17 17 15 14 14 14 15 14 17 19 23 24 23 23 16 14 7 8 16 11 22 46 49 61 46 41 59 20 14 10 16 25 28 11 3 21 13 12 15 17 16 19 12 10
24 21 19 20 20 18 16 16 15 17 16 16 18 21 22 19 13 7 4 3 28 4 6 13 13 28 44 39 26 59 55 19 9 27 15 15 22 11 9 12 17 20 22 27 18 8 6
19 22 25 24 24 22 20 19 18 16 18 19 19 22 21 16 6 1 2 17 20 32 10 14 9 14 31 47 29 31 71 45 16 13 13 17 16 18 26 42 21 15 10 12 8 8 2
25 24 23 25 28 28 26 25 21 20 19 19 19 20 20 16 9 9 9 15 36 8 14 15 9 7 4 38 24 20 30 48 35 10 6 15 10 14 19 9 26 7 6 7 4 4 8
20 22 22 27 31 32 29 26 26 26 22 21 20 20 17 15 7 8 11 21 6 8 8 17 21 13 18 9 16 25 26 31 32 22 28 30 26 8 10 9 11 8 7 3 5 7 14
22 23 25 28 28 26 23 28 27 25 22 22 22 22 20 19 19 12 5 6 7 19 26 2 9 12 23 19 17 17 19 30 42 31 23 31 26 36 27 43 20 23 18 11 13 10 4
30 28 28 27 27 27 24 23 23 25 22 19 22 23 25 17 14 4 4 6 16 12 4 12 21 11 22 19 15 18 32 41 35 47 37 22 27 6 16 20 34 13 17 38 8 3 6
29 31 33 34 33 30 26 26 26 25 22 19 24 20 24 17 11 15 5 14 15 20 8 17 19 18 35 36 25 25 24 26 41 40 38 22 15 19 8 10 22 21 20 11 9 14 20
29 31 30 27 27 30 36 36 30 26 23 23 16 7 5 17 26 21 10 17 16 29 10 10 11 25 24 8 35 26 25 25 40 41 42 9 20 4 14 19 30 15 17 6 9 9 11
31 32 31 32 31 29 25 25 32 33 27 27 15 4 15 38 20 13 14 13 20 27 25 29 15 27 32 36 22 27 35 36 49 54 30 44 16 26 26 7 10 23 27 29 11 14 8
37 37 37 35 34 31 30 29 27 32 33 41 17 19 26 45 14 20 11 21 26 25 16 12 20 23 33 28 20 31 16 22 20 27 24 21 17 17 10 10 4 13 15 29 14 6 20
46 45 45 44 44 43 39 36 34 34 39 49 23 9 23 45 37 23 27 27 29 33 35 38 30 26 16 34 37 23 19 4 2 17 58 20 11 30 40 44 13 14 16 23 30 5 34
50 51 52 52 51 50 48 45 42 38 38 53 31 13 23 12 31 35 23 12 26 21 32 30 19 45 45 19 35 42 46 47 15 6 2 13 21 25 42 28 9 12 25 28 31 47 23
58 60 60 59 59 58 56 52 51 46 41 53 30 18 26 26 34 39 41 43 46 41 19 19 40 41 36 53 37 44 29 14 25 3 6 0 5 10 27 22 24 20 10 32 41 24 26
67 66 67 66 65 64 63 63 65 57 50 46 59 46 31 31 24 27 35 49 53 55 48 59 44 38 38 51 54 62 63 73 12 11 5 5 7 9 46 10 15 7 38 18 18 12 23
59 59 59 62 62 65 68 69 70 69 71 78 56 39 15 16 30 43 43 49 47 45 41 42 53 44 72 85 69 80 75 69 44 30 7 14 10 14 25 4 18 14 5 24 31 14 24
59 63 65 70 71 69 71 70 69 71 79 82 79 63 32 15 37 35 52 50 61 60 45 47 49 54 48 46 13 17 26 27 36 34 33 11 18 6 8 10 13 29 8 12 15 24 27
70 69 73 75 77 78 76 75 75 71 78 81 86 87 62 9 40 72 47 51 35 32 29 40 45 52 52 24 9 18 20 17 18 15 30 18 13 24 6 9 22 24 24 25 9 16 18
70 70 75 79 84 86 86 87 84 81 79 84 84 89 71 37 57 52 42 46 59 37 22 21 29 27 50 28 20 22 30 14 21 27 18 16 6 37 27 14 16 9 7 32 21 16 17
59 60 63 69 77 80 83 86 84 86 87 86 99 94 85 38 63 58 92 69 36 53 25 36 17 22 17 19 19 14 16 13 18 33 22 19 20 10 8 21 37 17 12 22 11 13 27
53 55 59 60 52 52 63 71 78 81 83 93 97 99 97 62 39 50 77 101 91 70 64 31 24 26 18 15 14 10 14 10 25 18 15 19 12 16 21 12 1 8 2 10 28 39 28
Wind_Direction_850mb
246 247 247 249 251 255 257 260 268 275 273 273 268 270 270 275 277 280 283 288 293 298 304 307 311 316 326 310 273 283 248 189 213 234 239 219 199 195 215 195 216 225 265 247 252 279 283
232 239 246 246 250 253 257 259 261 263 267 275 279 271 274 274 275 277 280 283 288 294 300 305 309 310 318 296 263 269 248 210 216 229 250 232 240 234 227 221 206 236 274 284 284 275 257
234 240 240 251 250 251 254 258 260 263 262 266 275 279 273 272 276 276 279 280 283 290 294 300 308 309 297 269 265 255 248 237 236 238 241 234 261 249 218 249 277 280 295 309 309 312 249
232 235 244 245 258 263 268 269 271 269 270 269 265 272 279 273 273 276 277 280 284 283 287 293 300 306 279 276 260 255 249 243 242 238 219 214 288 257 257 306 343 336 12 329 303 335 19
241 244 254 250 258 266 272 279 272 281 287 286 278 271 273 278 274 272 275 279 285 285 286 285 294 295 275 262 253 257 244 243 241 230 220 231 279 225 290 21 309 22 292 308 315 349 325
251 260 268 269 263 271 273 275 288 292 289 287 292 293 277 271 275 274 272 280 283 286 281 280 268 288 254 256 250 255 235 230 217 214 230 214 188 206 102 180 250 204 295 271 285 249 324
225 241 266 276 267 274 279 284 289 293 296 295 290 290 295 287 275 278 281 283 293 284 238 213 230 214 264 299 271 260 244 212 190 189 186 171 193 228 212 213 244 290 260 272 278 276 280
236 235 245 258 274 273 286 288 287 288 293 296 302 298 294 297 298 274 283 286 137 327 299 255 245 253 253 268 286 291 227 186 171 196 141 169 230 234 201 207 238 267 285 281 282 280 263
241 244 250 260 268 277 282 282 289 290 298 306 304 304 303 306 306 275 264 244 246 311 277 276 250 249 248 248 249 254 242 214 172 163 191 208 191 202 199 194 204 240 254 263 258 315 267
251 252 254 258 266 270 278 283 286 290 297 298 305 312 315 319 302 322 110 253 226 155 313 282 231 246 219 222 250 245 238 233 202 201 163 228 232 198 173 210 184 264 215 248 267 275 252
264 257 255 257 260 265 267 274 282 289 295 296 300 308 317 333 325 4 5 44 150 151 244 277 258 276 218 186 207 227 230 219 217 179 165 215 177 189 216 233 177 243 187 222 242 219 252
265 260 252 258 260 261 265 271 272 276 281 288 295 299 306 318 318 278 263 12 124 88 240 283 284 224 196 222 227 192 178 202 218 186 250 229 200 180 203 176 189 177 147 66 69 157 229
268 269 270 264 261 261 260 266 271 272 274 277 284 288 295 299 301 299 329 137 95 200 123 232 223 181 206 212 252 219 177 173 191 191 221 215 225 202 167 144 175 183 106 284 243 217 236
263 273 273 262 265 269 265 262 269 276 278 273 272 272 269 267 288 311 38 97 236 198 201 192 259 213 199 178 215 228 215 206 208 198 217 214 236 198 193 211 194 201 171 180 222 209 241
264 264 261 264 263 262 265 268 272 274 280 281 271 273 273 264 274 293 179 168 216 209 237 253 257 265 228 221 198 185 220 222 207 202 209 201 230 166 191 190 185 172 188 230 227 87 253
265 267 268 261 261 264 266 268 269 273 273 268 267 278 279 255 212 155 124 240 238 198 340 357 248 248 241 218 199 185 199 222 226 216 212 211 243 209 156 125 214 195 151 121 205 215 235
278 267 269 267 267 266 265 264 261 257 253 247 245 279 176 184 169 178 206 228 264 240 186 211 303 280 276 305 219 208 202 207 210 216 214 187 219 181 132 201 179 182 215 178 165 187 213
272 272 271 273 272 268 265 264 257 250 240 230 211 200 201 171 179 210 220 205 250 266 235 230 264 271 272 278 303 236 216 217 196 204 197 211 209 229 208 135 225 201 211 185 194 204 236
272 272 272 274 273 270 268 267 265 242 227 218 213 195 190 193 210 221 240 241 243 255 229 230 243 218 273 303 270 263 253 233 215 193 188 181 210 227 230 235 112 212 195 200 197 61 209
272 271 270 270 270 269 268 261 256 248 229 225 196 196 190 212 229 225 224 249 251 251 246 247 256 246 280 284 280 283 271 293 178 216 215 179 196 214 226 227 185 206 202 204 195 165 236
271 271 273 271 267 264 260 256 249 244 231 219 200 205 194 198 219 218 225 243 246 241 233 224 234 235 240 260 281 272 272 254 278 178 248 177 202 214 236 240 191 205 217 199 202 222 220
272 270 267 266 265 264 263 257 249 242 235 230 212 194 207 227 194 207 217 231 241 249 251 242 237 248 242 235 234 277 316 246 260 301 129 155 303 189 245 230 229 248 222 208 220 233 238
275 272 269 267 265 263 259 256 249 241 233 233 240 232 214 215 205 193 211 220 229 240 250 246 257 268 267 256 253 266 293 283 278 331 97 115 112 231 248 206 168 220 229 181 192 186 216
279 276 273 270 267 263 257 253 247 240 231 233 232 236 221 228 206 215 217 216 224 225 235 248 239 244 256 266 283 277 288 275 255 263 262 148 146 230 255 160 220 242 238 228 228 210 207
284 283 278 273 269 264 259 256 248 241 232 234 236 231 218 240 222 225 224 225 236 245 243 243 250 261 277 272 284 269 258 240 237 235 243 192 200 214 241 220 281 270 189 157 174 238 210
286 281 280 276 270 266 255 250 248 245 236 236 235 237 238 256 218 221 221 222 228 228 246 245 251 255 255 250 243 239 239 201 184 199 213 191 211 213 139 235 225 255 193 184 147 249 177
288 285 283 278 272 265 257 250 246 243 239 236 237 234 229 243 255 220 220 218 225 229 246 246 230 243 242 233 226 241 253 213 199 188 168 165 172 203 210 233 269 243 218 159 182 241 173
291 292 293 290 281 265 252 247 245 241 238 233 235 234 225 232 250 231 224 221 215 214 222 229 219 238 235 252 210 204 241 226 202 200 175 167 170 180 147 204 246 174 138 188 192 117 152
297 296 295 297 290 263 247 244 242 241 239 234 231 227 229 228 244 251 231 230 222 221 216 223 230 228 219 215 210 212 229 216 192 212 190 202 188 187 191 207 155 148 17 152 150 150 158